Regional Weather Roundup
Issued by NWS

Home | Current Version | Previous Version | Graphics & Text | Print | Product List | Glossary On
Versions: 1 2 3 4 5 6 7 8 9 10 11 12 13 14 15 16 17 18 19 20 21 22 23 24 25 26 27 28 29 30 31 32 33 34 35 36 37 38 39 40 41 42 43 44 45 46 47 48 49 50
000
ASUS43 KIND 181200
RWRIN

WEATHER ROUNDUP FOR INDIANA
NATIONAL WEATHER SERVICE INDIANAPOLIS IN
800 AM EDT MON SEP 18 2017

NOTE: "FAIR" INDICATES FEW OR NO CLOUDS BELOW 12,000 FEET WITH NO
SIGNIFICANT WEATHER AND/OR OBSTRUCTIONS TO VISIBILITY.

* - STATION DOES NOT REPORT WEATHER SUCH AS PRECIPITATION OR FOG.

+ - STATION NOT QUALITY CONTROLLED BY THE NATIONAL WEATHER SERVICE.
    USE DATA WITH CAUTION...ESPECIALLY DEWPOINT AND RELATIVE
    HUMIDITY OBSERVATIONS.

INZ001>003-010>013-019-020-181300-
NORTHWEST INDIANA

CITY           SKY/WX    TMP DP  RH WIND       PRES   REMARKS
GARY /AIRPORT/ PTCLDY    64  57  77 NE8       30.11R
KNOX *+        CLOUDY    61  59  94 CALM      30.10R
MONTICELLO +   CLOUDY    65  63  95 NE3       30.09R
6HR MIN TEMP:  65; 6HR MAX TEMP:  69;


$$

LMZ046-743>745-181300-
SOUTHERN LAKE MICHIGAN

STATION/POSITION TIME  TEMP    WIND        PRES    WAVE
                       AIR SEA DIR/SP/G            HT
                 (UTC) (F)     (DEG/KT/KT) (MB)    (FT)
BURNS HARBOR     1140   67      30/ 11/ 12 1019.6S
MICHIGAN CITY    1130   66      10/ 11/ 11   N/A
5NW MICH CITY    1150   66 68   30/ 10/ 12   N/A     2

$$

INZ004-005-014>016-021>024-181300-
NORTH CENTRAL INDIANA

CITY           SKY/WX    TMP DP  RH WIND       PRES   REMARKS
ELKHART        PTCLDY    63  57  82 N5        30.10
GOSHEN         CLOUDY    63  59  87 N3        30.10R
6HR MIN TEMP:  63; 6HR MAX TEMP:  69; 6HR PCP: TRACE;

PERU/GRISSOM   CLOUDY    66  66 100 N5        30.08R FOG
SOUTH BEND     CLOUDY    60  59  96 N3        30.11R
6HR MIN TEMP:  59; 6HR MAX TEMP:  65;

WARSAW +       CLOUDY    61  61 100 CALM      30.09S FOG

$$

INZ006>009-017-018-025>027-181300-
NORTHEAST INDIANA

CITY           SKY/WX    TMP DP  RH WIND       PRES   REMARKS
AUBURN +       LGT RAIN  66  64  94 CALM      30.10R
FORT WAYNE     LGT RAIN  67  65  93 NW3       30.10R FOG
6HR MIN TEMP:  67; 6HR MAX TEMP:  69; 6HR PCP:  0.04;

KENDALLVILLE + LGT RAIN  64  64 100 N3        30.09S

$$

INZ028-029-035-036-043>045-051>053-181300-
WEST CENTRAL INDIANA

CITY           SKY/WX    TMP DP  RH WIND       PRES   REMARKS
LAFAYETTE      LGT RAIN  66  66 100 N5        30.08S FOG
6HR MIN TEMP:  66; 6HR MAX TEMP:  69; 6HR PCP:  0.01;

TERRE HAUTE    CLOUDY    69  67  93 N3        30.07S FOG
6HR MIN TEMP:  68; 6HR MAX TEMP:  71;


$$

INZ030>032-037>040-046>048-054>057-064-065-181300-
CENTRAL INDIANA

CITY           SKY/WX    TMP DP  RH WIND       PRES   REMARKS
ANDERSON       CLOUDY    66  66 100 NW3       30.10
COLUMBUS       CLOUDY    68  66  94 CALM      30.08R
FRANKFORT +    CLOUDY    69  68  96 CALM      30.10S FOG
6HR MIN TEMP:  69; 6HR MAX TEMP:  70; 6HR PCP:  0.01;

GREENWOOD *+   CLOUDY    73  71  93 CALM      30.09R
6HR MIN TEMP:  71; 6HR MAX TEMP:  73;

INDIANAPOLIS   LGT RAIN  70  68  93 CALM      30.09R
6HR MIN TEMP:  70; 6HR MAX TEMP:  72; 6HR PCP: TRACE;

-EAGLE CREEK   CLOUDY    70  66  87 E3        30.08R
6HR MIN TEMP:  70; 6HR MAX TEMP:  72; 6HR PCP: TRACE;

KOKOMO +       CLOUDY    67  66  97 N3        30.10R FOG
6HR MIN TEMP:  67; 6HR MAX TEMP:  69; 6HR PCP:  0.01;

MT COMFORT *+  CLOUDY    66  66 100 CALM      30.09R
SHELBYVILLE    CLOUDY    69  65  86 CALM      30.08R
6HR MIN TEMP:  67; 6HR MAX TEMP:  70; 6HR PCP: TRACE;


$$

INZ033-034-041-042-049-050-058-059-181300-
EAST CENTRAL INDIANA

CITY           SKY/WX    TMP DP  RH WIND       PRES   REMARKS
MUNCIE         CLOUDY    69  66  90 CALM      30.09R FOG
6HR MIN TEMP:  69; 6HR MAX TEMP:  71; 6HR PCP:  0.01;

RICHMOND +     LGT RAIN  64  63  94 E3        30.10R

$$

INZ060-061-067>069-081>083-085>088-181300-
SOUTHWEST INDIANA

CITY           SKY/WX    TMP DP  RH WIND       PRES   REMARKS
EVANSVILLE     CLOUDY    70  69  97 CALM      30.06R FOG
6HR MIN TEMP:  70; 6HR MAX TEMP:  73; 6HR PCP: TRACE;

HUNTINGBURG +    N/A    N/A N/A N/A MISG        N/A

$$

INZ062-063-066-070>080-084-089>092-181300-
SOUTH CENTRAL AND SOUTHEAST INDIANA

CITY           SKY/WX    TMP DP  RH WIND       PRES   REMARKS
BLOOMINGTON    LGT RAIN  68  65  90 CALM      30.08R FOG
6HR MIN TEMP:  68; 6HR MAX TEMP:  72; 6HR PCP: TRACE;

MADISON *+     CLOUDY    64  63  94 CALM      30.10R
SEYMOUR +      CLOUDY    68  68 100 CALM      30.08R FOG

$$





USA.gov is the U.S. government's official web portal to all federal, state and local government web resources and services.